Вернуться в каталог

TYVAK-0173

АктивенНаукаPO
NORAD 48892·PAYLOAD·🇦🇺 Australia

Запущен Jun 30, 2021 с Cape Canaveral Space Force Station

Loading…

Ближайшие Пролёты (ближайшие 24 часа)

TLE

СвежийSource: Space-Track

Эпоха: Sep 14, 2026, 02:53 UTC

1 48892U 21059P   26257.12015216  .00001176  00000-0  15175-3 0  9995
2 48892  95.9995 311.3438 0011005  88.5089 271.7390 14.82115030281417

Отслеживайте TYVAK-0173 в реальном времени с AllMySat

Download on the App Store